Home   Weather   Bochum   Past weeks

Flag for Germany Past Weather in Bochum, North Rhine-Westphalia, Germany — Yesterday and Last 2 Weeks

Now
84 °F

Passing clouds.


Feels Like: 82 °F
Forecast: 65 / 81 °F
Wind: 9 mph from South

Location: Dortmund / Wickede

Current Time: May 27, 2017 at 5:45:12 pm

Latest Report: May 27, 2017 at 4:50 pm


Visibility: N/A

Pressure: 30.04 "Hg

Humidity: 27%

Dew Point: 46 °F

Location of BochumLocation

Past Weather in Bochum — Graph

°F

Bochum Temperature Yesterday

Maximum temperature yesterday: 75 °F (at 4:50 pm)
Minimum temperature yesterday: 52 °F (at 5:20 am)
Average temperature yesterday: 67 °F

High & Low Weather Summary for the Past Weeks

 TemperatureHumidityPressure
High84 °F (May 27, 3:50 pm)94% (May 14, 6:20 am)30.42 "Hg (May 14, 6:20 am)
Low45 °F (May 21, 5:20 am)26% (May 27, 3:20 pm)29.59 "Hg (May 12, 4:20 pm)
Average64 °F59%30.10 "Hg
* Reported May 12 4:20 pm — May 27 4:20 pm, Bochum. Weather by CustomWeather, © 2017

Note: Actual official high and low records may vary slightly from our data, if they occured in-between our weather recording intervals... More about our weather records

Advertising

Bochum Weather History for the Previous 24 Hours

Scroll right to see more
 ConditionsComfort  
Time TempWeatherWind HumidityBarometerVisibility
4:20 pm
Sat, May 27
84 °FPassing clouds.10 mph27%30.04 "HgN/A
3:50 pm84 °FPassing clouds.10 mph27%30.04 "HgN/A
3:20 pm82 °FPassing clouds.10 mph26%30.04 "HgN/A
2:50 pm82 °FPassing clouds.10 mph30%30.07 "HgN/A
2:20 pm82 °FPassing clouds.7 mph30%30.07 "HgN/A
1:50 pm81 °FPassing clouds.8 mph32%30.07 "HgN/A
1:20 pm81 °FPassing clouds.8 mph32%30.07 "HgN/A
12:50 pm81 °FPassing clouds.8 mph34%30.09 "HgN/A
12:20 pm79 °FPassing clouds.8 mph34%30.09 "HgN/A
11:50 am77 °FPassing clouds.7 mph36%30.09 "HgN/A
11:20 am77 °FSunny.7 mph42%30.09 "Hg10 mi
10:50 am75 °FPassing clouds.7 mph41%30.09 "HgN/A
10:20 am73 °FPassing clouds.6 mph47%30.12 "HgN/A
9:50 am72 °FPassing clouds.7 mph47%30.12 "HgN/A
9:20 am72 °FPassing clouds.8 mph50%30.12 "HgN/A
8:50 am70 °FPassing clouds.7 mph53%30.12 "HgN/A
8:20 am68 °FSunny.8 mph56%30.12 "Hg10 mi
7:50 am66 °FSunny.5 mph60%30.12 "Hg10 mi
7:20 am64 °FSunny.5 mph64%30.12 "Hg10 mi
6:50 am63 °FSunny.2 mph64%30.12 "Hg10 mi
6:20 am57 °FSunny.3 mph72%30.12 "Hg10 mi
5:50 am57 °FSunny.5 mph77%30.12 "Hg10 mi
5:20 am54 °FClear.2 mph82%30.12 "Hg10 mi
9:50 pm
Fri, May 26
68 °FClear.9 mph49%30.12 "Hg10 mi
9:20 pm68 °FSunny.9 mph49%30.12 "Hg10 mi
8:20 pm72 °FSunny.12 mph44%30.09 "Hg10 mi
7:50 pm73 °FSunny.12 mph41%30.09 "Hg10 mi
7:20 pm73 °FPassing clouds.12 mph44%30.09 "HgN/A
6:50 pm73 °FPassing clouds.13 mph44%30.09 "HgN/A
5:20 pm73 °FPassing clouds.14 mph47%30.12 "HgN/A
Weather by CustomWeather, © 2017

See weather overviewHow to use our weather pages